TimeMDT,TemperatureF,Dew PointF,Humidity,Sea Level PressureIn,VisibilityMPH,Wind Direction,Wind SpeedMPH,Gust SpeedMPH,PrecipitationIn,Events,Conditions,WindDirDegrees,DateUTC
12:53 AM,61.0,54.0,78,29.81,10.0,ESE,11.5,-,N/A,,Clear,120,2013-05-25 06:53:00
1:53 AM,57.9,52.0,81,29.80,10.0,ESE,5.8,-,N/A,,Clear,110,2013-05-25 07:53:00
2:53 AM,54.0,51.1,90,29.82,10.0,NW,4.6,-,N/A,,Clear,320,2013-05-25 08:53:00
3:18 AM,55.4,51.8,88,29.95,10.0,North,3.5,-,N/A,,Mostly Cloudy,10,2013-05-25 09:18:00
3:53 AM,60.1,53.1,78,29.82,10.0,East,5.8,-,N/A,,Overcast,100,2013-05-25 09:53:00
4:53 AM,61.0,55.0,81,29.83,10.0,SSE,4.6,-,N/A,,Overcast,150,2013-05-25 10:53:00
5:53 AM,60.1,55.0,83,29.85,10.0,SSE,4.6,-,N/A,,Overcast,160,2013-05-25 11:53:00
6:11 AM,60.8,55.4,82,29.99,10.0,South,3.5,-,N/A,,Overcast,170,2013-05-25 12:11:00
6:53 AM,61.0,55.9,83,29.87,10.0,ESE,10.4,-,N/A,,Overcast,110,2013-05-25 12:53:00
7:53 AM,63.0,57.0,81,29.87,8.0,ESE,13.8,-,N/A,,Overcast,120,2013-05-25 13:53:00
8:53 AM,64.9,57.0,75,29.88,8.0,SE,9.2,-,N/A,,Overcast,140,2013-05-25 14:53:00
9:53 AM,66.9,57.0,70,29.87,9.0,SE,6.9,-,N/A,,Overcast,130,2013-05-25 15:53:00
10:44 AM,69.8,57.2,64,29.97,9.0,SSE,5.8,-,N/A,,Scattered Clouds,150,2013-05-25 16:44:00
10:53 AM,71.1,57.0,61,29.85,9.0,ENE,4.6,-,N/A,,Partly Cloudy,70,2013-05-25 16:53:00
11:53 AM,73.9,57.0,55,29.83,10.0,SSE,5.8,-,N/A,,Clear,160,2013-05-25 17:53:00
12:53 PM,77.0,57.0,50,29.80,10.0,SE,6.9,-,N/A,,Clear,140,2013-05-25 18:53:00
1:53 PM,82.9,55.9,39,29.77,10.0,ESE,9.2,-,N/A,,Clear,120,2013-05-25 19:53:00
2:53 PM,86.0,50.0,29,29.75,10.0,SE,11.5,18.4,N/A,,Clear,130,2013-05-25 20:53:00
3:38 PM,84.2,44.6,25,29.87,10.0,East,9.2,-,N/A,Thunderstorm,Scattered Clouds,100,2013-05-25 21:38:00
3:53 PM,84.0,46.0,26,29.73,10.0,ESE,12.7,-,N/A,Thunderstorm,Mostly Cloudy,110,2013-05-25 21:53:00
4:16 PM,84.2,51.8,33,29.86,10.0,East,17.3,-,N/A,,Partly Cloudy,100,2013-05-25 22:16:00
4:53 PM,82.9,46.0,27,29.72,10.0,East,17.3,23.0,N/A,,Clear,80,2013-05-25 22:53:00
5:53 PM,84.0,46.9,27,29.70,10.0,East,15.0,-,N/A,,Clear,100,2013-05-25 23:53:00
6:53 PM,82.9,48.0,29,29.68,10.0,SE,17.3,23.0,N/A,,Clear,130,2013-05-26 00:53:00
7:53 PM,78.1,46.9,33,29.69,10.0,ESE,15.0,-,N/A,,Clear,120,2013-05-26 01:53:00
8:53 PM,75.9,52.0,43,29.71,10.0,SE,15.0,24.2,N/A,,Clear,130,2013-05-26 02:53:00
9:53 PM,71.1,54.0,55,29.73,10.0,ESE,12.7,-,N/A,,Clear,120,2013-05-26 03:53:00
10:53 PM,66.0,54.0,65,29.73,10.0,ESE,9.2,-,N/A,,Clear,120,2013-05-26 04:53:00
11:53 PM,64.0,53.1,67,29.74,10.0,ESE,5.8,-,N/A,,Clear,110,2013-05-26 05:53:00